Theta_e
286 286 287 288 289 289 289 291 292 293 293 294 295 296 296 296 297 298 300 305 311 311 315 320 323 330 333 334 334 334 321 319 317 316 316 316 316 316 316 316 314 311 311
286 285 286 287 287 287 287 288 290 292 292 293 293 294 295 296 296 298 298 303 308 310 311 317 322 324 331 334 333 333 326 318 315 315 316 317 317 315 315 314 313 312 310
286 285 285 286 286 286 287 287 287 289 291 291 292 293 294 295 296 297 299 299 301 306 308 316 323 324 326 333 333 333 332 322 316 316 315 315 316 315 316 314 313 312 310
285 285 284 285 286 286 287 287 287 287 288 290 290 291 293 294 295 296 297 297 299 302 307 314 320 324 324 331 334 332 333 326 318 317 315 313 315 315 314 314 313 312 311
285 284 284 285 285 285 286 286 286 287 287 288 289 290 291 293 294 295 296 297 299 301 306 313 315 320 324 325 333 333 332 330 320 316 315 313 312 313 313 314 313 312 310
286 285 284 285 285 285 285 285 285 286 286 287 288 289 290 292 293 295 296 297 299 302 304 309 312 318 323 325 326 333 332 332 327 318 316 314 311 310 310 311 311 311 310
286 286 285 284 285 285 285 285 285 285 285 286 286 287 289 290 292 294 295 296 298 301 305 307 310 316 322 325 322 326 331 332 331 322 317 315 312 311 310 310 310 311 311
286 286 285 284 284 284 285 285 285 284 285 285 285 286 287 288 290 292 294 295 297 301 305 308 310 316 318 325 324 324 327 330 331 329 318 316 315 312 310 309 309 308 310
286 286 285 284 283 283 284 284 285 284 284 284 285 285 285 287 288 291 293 294 297 300 303 308 312 314 317 322 325 323 323 325 329 331 327 318 316 314 311 309 308 307 308
286 285 285 284 283 282 283 283 283 283 283 283 284 284 285 286 287 289 291 293 295 299 303 306 310 313 317 319 324 325 324 324 325 326 328 323 317 316 313 309 308 307 306
286 285 284 284 283 282 282 282 283 283 283 283 283 284 284 285 286 287 290 292 294 296 300 304 308 312 317 316 319 324 325 323 325 324 325 326 318 316 314 312 310 308 307
286 284 284 284 283 282 281 282 282 282 282 282 282 283 283 283 284 286 287 289 293 295 298 301 306 310 313 315 317 319 323 324 323 325 327 327 322 316 316 313 313 310 309
285 284 284 283 283 281 281 281 281 281 281 281 282 282 282 283 283 284 287 288 291 294 296 299 304 309 312 314 316 318 320 322 322 322 325 325 325 322 319 321 318 314 309
286 284 283 283 282 281 280 281 281 280 280 280 281 281 281 282 283 284 285 287 289 291 295 298 301 308 310 313 315 317 318 320 324 323 325 325 325 325 323 320 323 319 312
285 285 284 282 281 280 280 280 280 280 280 280 280 280 280 281 282 282 284 286 288 289 292 296 299 305 307 313 315 317 317 318 320 321 324 325 325 325 325 326 323 321 314
286 284 283 282 281 280 280 279 279 279 279 279 279 279 280 280 281 282 283 285 287 288 289 294 296 302 306 312 314 315 316 316 317 318 319 321 323 322 325 326 324 321 314
284 283 282 281 280 279 279 279 279 278 278 278 278 278 279 280 280 281 282 283 285 287 289 292 295 299 304 311 314 314 314 317 318 320 322 321 322 322 324 323 324 323 321
284 282 281 280 279 278 278 278 278 277 277 277 278 277 278 279 280 281 281 282 283 285 287 290 293 295 302 308 314 314 313 316 317 320 322 321 322 321 323 322 323 323 320
283 281 280 279 278 277 277 277 277 276 276 277 277 277 277 279 279 280 281 281 282 284 286 289 291 294 301 307 313 313 313 315 317 319 322 321 321 321 321 323 323 322 322
281 279 278 278 277 276 276 276 276 276 276 276 276 277 276 278 279 279 280 281 281 283 284 288 290 292 297 305 311 313 314 314 318 318 319 320 321 320 323 323 322 322 322
279 278 277 276 276 275 275 275 275 275 275 275 276 276 276 277 278 279 280 280 281 282 283 287 289 290 295 302 306 312 313 314 317 318 319 319 321 321 323 322 322 322 323
277 277 276 275 274 274 274 274 274 274 274 275 275 275 276 276 278 278 279 280 280 282 282 285 288 289 293 299 305 311 315 316 318 316 318 319 320 321 321 321 321 322 322
276 275 275 274 273 273 273 273 273 273 274 274 275 275 275 276 277 278 278 279 280 280 281 283 285 288 292 298 304 311 315 316 317 316 318 319 319 320 320 321 321 321 320
274 274 273 273 273 272 272 272 273 273 273 274 274 274 275 275 276 277 278 278 278 279 280 281 283 286 289 297 303 310 315 316 317 316 317 318 319 319 319 319 318 319 321
273 272 272 272 272 272 272 272 272 272 272 273 273 274 274 275 276 276 277 277 278 279 280 281 282 284 287 291 294 298 309 315 316 316 316 315 314 315 316 316 316 316 318
271 271 271 271 271 271 271 271 271 271 272 272 273 273 273 274 275 275 277 278 278 280 281 282 282 284 286 288 290 295 309 310 315 314 315 315 313 313 317 316 315 314 318
Wind_Speed
7 10 10 11 15 17 18 17 19 20 21 21 21 23 20 18 19 20 22 32 38 38 27 22 10 52 62 58 53 47 42 35 35 33 31 30 28 24 20 18 18 20 20
5 10 12 14 16 18 19 18 17 20 20 20 19 19 23 21 19 18 21 21 27 31 33 27 12 34 59 61 58 54 48 45 44 39 34 23 24 29 30 27 25 23 22
6 9 12 15 16 19 21 22 20 19 20 21 21 19 21 22 19 20 19 19 26 37 39 26 15 20 47 66 64 59 55 52 49 42 26 16 15 29 32 33 31 29 27
6 8 11 15 17 19 22 23 22 21 21 21 21 20 21 23 22 23 21 18 24 27 36 33 26 22 43 62 65 62 57 55 54 48 38 26 20 16 17 36 35 33 32
6 8 11 15 17 19 21 23 23 21 21 22 22 22 21 22 24 24 23 19 20 25 36 36 35 25 38 52 64 65 62 56 56 58 52 37 26 20 16 18 41 39 37
9 11 12 14 16 18 20 22 23 22 21 23 23 23 24 24 25 24 25 23 21 21 25 35 35 30 38 54 59 71 66 58 58 59 56 52 44 36 28 21 27 38 39
11 11 12 14 16 18 21 22 24 23 22 21 22 22 23 23 24 25 26 26 25 23 21 31 34 35 32 54 57 63 67 61 60 61 60 56 51 40 33 22 20 24 31
12 12 13 14 15 17 19 21 24 25 23 22 22 23 22 23 24 24 26 28 28 25 19 28 32 40 26 46 59 57 64 66 60 61 62 60 56 46 31 25 20 15 23
14 14 13 14 14 15 17 20 22 24 24 25 23 24 23 24 24 25 26 29 29 26 25 30 35 42 24 52 49 60 59 54 64 64 63 62 57 51 36 27 20 15 14
18 16 14 14 15 14 15 17 19 22 24 25 24 24 25 24 25 25 26 28 29 29 28 33 38 38 29 38 50 48 54 60 63 67 65 64 59 53 44 36 29 21 15
19 17 14 14 16 15 15 15 18 21 22 24 26 25 25 25 25 25 26 27 29 31 31 34 38 35 39 28 46 52 50 62 65 64 64 61 61 57 51 45 38 29 20
21 17 15 16 17 17 16 16 17 21 22 24 26 26 26 25 25 25 25 27 30 31 33 37 41 37 37 38 41 55 59 58 63 61 56 58 61 54 51 49 43 36 31
25 22 19 19 19 18 17 17 17 19 23 23 25 27 27 26 26 26 27 26 29 31 34 37 40 40 34 40 40 52 58 55 55 59 55 54 52 54 54 52 50 42 37
30 26 24 22 20 18 17 18 18 19 22 25 24 26 27 27 27 27 27 28 28 30 34 36 37 44 34 39 44 47 57 59 53 54 49 50 51 51 57 54 49 46 41
29 29 28 24 20 19 17 18 19 20 22 25 26 26 28 28 28 27 27 28 29 30 31 36 37 43 41 36 45 45 55 58 58 57 56 54 52 49 50 47 44 42 41
23 23 21 22 20 19 18 18 20 22 23 24 26 26 28 28 28 28 27 27 28 29 30 33 37 41 42 39 43 48 53 53 52 49 49 48 46 46 48 45 39 37 40
19 19 19 20 18 17 18 19 20 22 23 24 26 26 27 29 28 28 27 26 27 29 31 32 35 40 42 43 39 53 44 49 44 47 46 46 41 42 47 44 37 35 39
18 17 18 18 16 16 17 19 20 21 22 23 25 26 27 28 28 28 28 27 27 28 30 32 33 35 42 43 43 51 52 45 46 50 47 47 43 39 40 40 41 34 34
17 17 16 16 15 15 17 19 20 21 22 23 25 26 26 28 29 29 29 28 28 28 29 30 32 33 42 48 37 50 52 48 52 51 47 43 43 39 39 40 41 37 36
18 15 14 13 14 15 17 20 21 21 22 24 25 25 26 27 29 29 29 29 28 29 29 30 30 31 38 46 37 49 56 50 50 48 40 42 40 40 39 40 38 40 33
14 13 12 11 13 16 18 20 21 21 23 24 25 25 25 26 27 28 27 29 29 29 28 28 29 29 33 44 32 57 58 55 48 45 41 39 41 41 39 39 36 33 31
12 11 11 12 12 15 17 20 21 21 23 25 25 26 25 25 26 27 27 28 28 29 28 26 28 26 28 35 35 53 67 60 46 47 48 44 41 39 36 37 34 31 35
10 10 11 12 12 14 16 19 20 22 23 24 25 25 26 25 24 25 28 28 27 26 27 25 28 29 24 28 32 51 63 57 51 51 51 49 42 39 38 38 37 38 41
10 11 11 12 13 14 15 17 19 22 23 24 25 26 26 26 24 24 25 28 27 27 26 23 29 30 25 17 20 43 58 61 57 51 52 45 43 40 41 40 41 42 41
11 11 12 13 14 15 15 16 18 21 22 23 25 26 26 26 26 26 28 27 27 24 27 29 27 27 28 20 12 13 45 60 57 54 57 48 44 45 43 44 44 44 42
12 13 13 15 15 16 16 15 17 20 21 23 25 26 27 25 24 29 32 27 25 24 23 24 21 23 27 28 28 19 43 48 61 63 59 47 45 49 48 47 48 45 43
Wind_Direction
322 336 341 334 324 321 319 317 310 306 309 310 308 296 305 294 305 305 290 283 282 292 293 282 327 215 224 216 215 212 205 193 197 187 190 195 198 201 198 201 208 213 209
330 338 346 347 339 333 328 327 317 308 308 308 304 302 299 302 303 300 296 292 283 282 284 284 300 208 215 218 212 213 205 202 203 196 188 189 204 211 211 213 215 217 216
322 335 340 344 344 338 334 332 332 320 309 307 307 301 297 299 295 294 284 282 276 275 281 280 280 220 211 220 212 215 215 207 204 204 182 174 208 206 214 216 217 218 218
308 324 334 341 343 339 334 331 331 328 319 308 307 306 298 292 289 283 288 289 281 274 275 267 262 232 219 213 219 215 218 216 205 204 203 200 195 183 206 217 219 218 221
301 314 324 339 340 342 336 332 330 328 321 316 307 306 302 297 291 291 289 283 277 274 271 266 267 280 224 215 225 215 216 219 215 211 204 207 205 198 192 200 216 219 220
289 308 318 331 338 341 340 334 332 330 324 318 315 309 306 302 296 289 283 278 271 260 250 259 263 273 240 222 218 217 216 220 221 219 212 210 209 210 205 204 210 218 220
272 298 309 322 335 339 340 338 332 330 327 322 317 310 302 296 291 287 283 278 269 260 237 248 252 262 252 229 217 216 218 222 221 221 221 220 215 219 211 210 203 206 219
264 285 294 307 324 334 336 337 333 330 328 325 318 313 305 299 294 291 285 278 273 268 247 234 244 248 277 235 228 221 221 221 223 225 222 224 220 219 218 217 214 202 215
249 268 279 295 311 323 330 333 331 329 327 324 321 314 311 303 297 290 285 280 276 272 252 236 230 243 275 236 228 223 220 221 227 220 227 226 224 220 217 216 215 217 209
242 258 267 284 296 309 322 327 327 327 327 324 321 316 312 306 298 291 284 282 276 270 255 247 236 240 250 241 240 223 230 231 225 220 221 227 227 222 218 215 215 215 218
236 251 264 276 285 297 310 319 321 323 325 324 322 319 314 310 302 295 288 284 276 270 261 255 242 231 233 251 231 239 228 228 230 222 219 225 226 222 219 221 222 220 217
235 253 271 277 278 286 298 310 317 319 321 324 323 321 317 312 305 297 291 284 278 271 266 257 243 239 228 242 251 230 232 230 226 231 232 234 228 225 223 225 226 221 224
239 257 272 273 274 278 291 303 314 316 317 320 321 320 318 314 308 302 293 286 280 271 266 260 247 238 231 232 251 237 236 232 229 226 222 227 237 229 226 224 226 219 217
247 259 267 268 265 271 284 297 307 314 314 317 319 319 318 316 312 306 298 289 283 276 269 264 252 237 228 225 244 243 236 236 232 227 226 225 227 230 227 225 225 220 217
253 258 262 259 257 264 277 289 298 306 310 312 316 316 317 317 314 310 302 294 287 281 277 269 257 239 237 219 235 244 231 231 232 227 225 226 224 227 226 227 223 222 213
252 255 246 245 251 262 278 290 299 305 309 310 313 314 314 316 316 313 307 298 291 284 282 271 261 246 236 214 230 236 235 227 227 225 223 223 225 229 224 222 222 219 209
240 238 237 241 248 264 279 288 295 301 305 309 309 312 313 316 318 314 311 305 296 289 284 275 263 252 236 218 223 231 237 232 232 226 226 227 224 226 221 220 218 227 222
229 229 231 239 253 267 278 286 294 298 302 307 307 311 314 315 317 315 312 310 302 294 287 278 268 260 241 221 216 226 232 239 244 239 233 232 226 220 215 218 219 226 215
222 221 233 248 261 272 279 286 292 297 302 303 305 309 315 316 317 316 312 311 307 300 293 282 276 266 245 227 216 219 225 232 235 240 231 229 228 224 215 219 223 224 220
216 221 236 251 268 279 284 288 294 297 299 301 304 308 313 315 315 316 313 311 309 303 299 286 278 270 251 227 220 217 223 224 227 223 226 226 225 222 220 221 220 224 220
208 224 241 260 274 279 283 287 292 297 298 300 302 307 310 313 314 314 314 311 311 304 299 289 282 276 257 233 217 206 216 218 220 227 222 223 221 221 221 221 223 221 224
203 229 253 268 272 277 284 289 293 297 297 299 302 306 309 312 314 312 314 315 311 307 306 299 289 284 268 245 220 204 215 214 215 228 230 222 217 213 216 220 219 218 215
220 243 256 263 270 276 282 287 294 297 298 300 302 306 308 312 314 316 315 318 313 309 309 309 300 290 281 247 223 204 211 218 215 227 221 223 217 211 212 214 211 212 211
233 243 251 262 273 277 281 289 294 297 300 302 305 309 312 315 315 314 318 317 313 310 308 310 305 296 293 252 238 208 204 218 208 219 223 225 222 211 209 210 210 212 208
238 246 256 266 274 280 285 292 295 296 299 300 304 310 314 317 316 316 317 315 311 306 303 299 296 298 296 274 253 224 204 209 214 218 221 218 218 209 207 208 208 208 207
249 256 264 272 277 282 287 294 295 295 298 300 305 311 314 318 315 317 316 315 313 307 298 289 287 285 285 283 284 254 188 200 208 209 214 210 214 208 203 207 207 208 208